Regional Weather Roundup
Issued by NWS

Home | Current Version | Previous Version | Graphics & Text | Print | Product List | Glossary On
Versions: 1 2 3 4 5 6 7 8 9 10 11 12 13 14 15 16 17 18 19 20 21 22 23 24 25 26 27 28 29 30 31 32 33 34 35 36 37 38 39 40 41 42 43 44 45 46 47 48 49 50
000
ASUS43 KIND 261659
RWRIN

WEATHER ROUNDUP FOR INDIANA
NATIONAL WEATHER SERVICE INDIANAPOLIS IN
100 PM EDT MON SEP 26 2016

NOTE: "FAIR" INDICATES FEW OR NO CLOUDS BELOW 12,000 FEET WITH NO
SIGNIFICANT WEATHER AND/OR OBSTRUCTIONS TO VISIBILITY.

* - STATION DOES NOT REPORT WEATHER SUCH AS PRECIPITATION OR FOG.

+ - STATION NOT QUALITY CONTROLLED BY THE NATIONAL WEATHER SERVICE.
    USE DATA WITH CAUTION...ESPECIALLY DEWPOINT AND RELATIVE
    HUMIDITY OBSERVATIONS.

INZ001>003-010>013-019-020-261800-
NORTHWEST INDIANA

CITY           SKY/WX    TMP DP  RH WIND       PRES   REMARKS
GARY /AIRPORT/ MOSUNNY   68  37  32 W24G39    30.00F
KNOX *+        SUNNY     66  14  13 W14G23    30.00F
MONTICELLO +   SUNNY     67  33  28 W13G21    30.03F
RENSSELAER +   SUNNY     68  36  30 W20G28    30.03F

$$

LMZ046-743>745-261800-
SOUTHERN LAKE MICHIGAN

STATION/POSITION TIME  TEMP    WIND        PRES    WAVE
                       AIR SEA DIR/SP/G            HT
                 (UTC) (F)     (DEG/KT/KT) (MB)    (FT)
BURNS HARBOR     1600   64     260/ 19/ 24 1015.9F
MICHIGAN CITY    1600   63     240/ 24/ 27   N/A
5NW MICH CITY    1600   64 66  260/ 17/ 23   N/A     5

$$

INZ004-005-014>016-021>024-261800-
NORTH CENTRAL INDIANA

CITY           SKY/WX    TMP DP  RH WIND       PRES   REMARKS
GOSHEN         LGT RAIN  64  43  46 W16G30    29.98F
SOUTH BEND     SUNNY     65  43  44 W20G29    29.98F
WARSAW +       CLOUDY    63  37  39 W16G24    30.00F

$$

INZ006>009-017-018-025>027-261800-
NORTHEAST INDIANA

CITY           SKY/WX    TMP DP  RH WIND       PRES   REMARKS
ANGOLA *+        N/A     63  54  72 W12       29.97S
AUBURN +       PTSUNNY   63  50  63 W12G22    30.00S
FORT WAYNE     CLOUDY    63  50  62 W14G23    30.01F
KENDALLVILLE + CLOUDY    62  50  64 W15G24    29.98F

$$

INZ028-029-035-036-043>045-051>053-261800-
WEST CENTRAL INDIANA

CITY           SKY/WX    TMP DP  RH WIND       PRES   REMARKS
CRAWFORDSVL +  CLOUDY    63  46  53 W12G17    30.08F
GREENCASTLE +  PTSUNNY   63  54  72 W7        30.10F
LAFAYETTE      CLOUDY    66  44  45 W15G23    30.05F
TERRE HAUTE    LGT RAIN  66  48  52 NW8       30.11S

$$

INZ030>032-037>040-046>048-054>057-064-065-261800-
CENTRAL INDIANA

CITY           SKY/WX    TMP DP  RH WIND       PRES   REMARKS
COLUMBUS       PTSUNNY   63  57  82 W8        30.10F
FRANKFORT +    CLOUDY    66  51  58 W13       30.08S
INDIANAPOLIS   CLOUDY    63  54  72 W12       30.08F
-EAGLE CREEK   CLOUDY    64  53  67 W10G18    30.07F
MT COMFORT *+  CLOUDY    64  54  68 W9G16     30.07F
SHELBYVILLE    CLOUDY    65  53  65 NW9       30.07F
ZIONSVILLE +   CLOUDY    62  52  71 W9G20     30.08F

$$

INZ033-034-041-042-049-050-058-059-261800-
EAST CENTRAL INDIANA

CITY           SKY/WX    TMP DP  RH WIND       PRES   REMARKS
MUNCIE         CLOUDY    64  53  67 NW12      30.05F

$$

INZ060-061-067>069-081>083-085>088-261800-
SOUTHWEST INDIANA

CITY           SKY/WX    TMP DP  RH WIND       PRES   REMARKS
EVANSVILLE     CLOUDY    68  57  68 VRB6      30.14F
HUNTINGBURG *+   N/A     63  55  77 NW7       30.13R

$$

INZ062-063-066-070>080-084-089>092-261800-
SOUTH CENTRAL AND SOUTHEAST INDIANA

CITY           SKY/WX    TMP DP  RH WIND       PRES   REMARKS
BLOOMINGTON    CLOUDY    64  55  72 NW6       30.10F
MADISON *+     CLOUDY    63  59  88 NW6       30.11F
SEYMOUR +      PTSUNNY   66  57  72 NW10      30.09F

$$




USA.gov is the U.S. government's official web portal to all federal, state and local government web resources and services.